Regional Weather Roundup
Issued by NWS

Home | Current Version | Previous Version | Graphics & Text | Print | Product List | Glossary On
Versions: 1 2 3 4 5 6 7 8 9 10 11 12 13 14 15 16 17 18 19 20 21 22 23 24 25 26 27 28 29 30 31 32 33 34 35 36 37 38 39 40 41 42 43 44 45 46 47 48 49 50
872
ASUS43 KLMK 272210
RWRKY
KENTUCKY REGIONAL WEATHER ROUNDUP
NATIONAL WEATHER SERVICE LOUISVILLE KY
600 PM EDT SAT MAY 27 2017

NOTE "FAIR" INDICATES FEW OR NO CLOUDS BELOW 12,000 FEET
WITH NO SIGNIFICANT WEATHER AND/OR OBSTRUCTIONS TO VISIBILITY.

KYZ001>023-026-027-061>063-070>075-272300-
WESTERN AND SOUTH CENTRAL KENTUCKY

CITY           SKY/WX    TMP DP  RH WIND       PRES   REMARKS
PADUCAH        TSTM      66  61  84 N17G23    29.88R
HENDERSON      CLOUDY    82  70  66 SW10      29.82F
OWENSBORO      PTSUNNY   82  72  69 W9        29.81F
HOPKINSVILLE   CLOUDY    77  73  87 SW10      29.85F
BOWLING GREEN  CLOUDY    85  72  65 SW16G22   29.84F HX  91
GLASGOW        CLOUDY    80  69  67 S6        29.85F
$$

KYZ024-025-028>034-038-045-046-053-272300-
NORTH CENTRAL KENTUCKY

CITY           SKY/WX    TMP DP  RH WIND       PRES   REMARKS
LOUISVILLE/SDF CLOUDY    80  71  74 NE7       29.83R THUNDER
LOUISVILLE/LOU CLOUDY    79  73  82 NE3       29.82F
FORT KNOX      TSTM      72  64  78 W23G33    29.85R VSB 1/2
$$

KYZ035>037-039>044-047>052-055>060-089>105-272300-
NORTHEAST KENTUCKY

CITY           SKY/WX    TMP DP  RH WIND       PRES   REMARKS
LEXINGTON      TSTM      69  62  78 VRB3      29.86F
COVINGTON      PTSUNNY   84  67  56 W10       29.83F
FRANKFORT      CLOUDY    76  65  68 SE7       29.85S
$$

KYZ054-064>069-076>088-106>120-272300-
SOUTHEAST KENTUCKY

CITY           SKY/WX    TMP DP  RH WIND       PRES   REMARKS
JACKSON        TSTM      63  62  97 CALM      29.93F VSB 1/4
LONDON         CLOUDY    74  69  85 W5        29.90F
SOMERSET       CLOUDY    77  68  73 N12       29.90F
MIDDLESBORO    CLOUDY    82  69  64 S9        29.91F
MONTICELLO     PTCLDY    81  70  69 W18       29.90F
$$





USA.gov is the U.S. government's official web portal to all federal, state and local government web resources and services.